This demonstration page uses our WeatherBlox Daily Observations layout. Learn more.

Left ArrowRight Arrow

47.50024, -111.30081

Hourly Observations for July 16, 2020

Temp ( °F °C ) Dew Point ( °F °C ) Humidity (%) Winds ( mph kmh ) Pressure ( in mb ) Visibility ( mi km ) Precip ( " mm )
12:53 am 00:53 Clear 55 12.8 44 6.7 67 67 SSW 8 13 29.94 1014 10 16 0.00 0.00
1:53 am 01:53 Clear 55 12.8 43 6.1 64 64 SW 10 17 29.93 1014 10 16 0.00 0.00
2:53 am 02:53 Clear 56 13.3 43 6.1 62 62 SSW 10 17 29.93 1014 10 16 0.00 0.00
3:53 am 03:53 Clear 53 11.7 43 6.1 69 69 SW 7 11 29.93 1014 10 16 0.00 0.00
4:53 am 04:53 Clear 53 11.7 42 5.6 66 66 SW 10 17 29.93 1014 10 16 0.00 0.00
5:53 am 05:53 Sunny 54 12.2 41 5 62 62 SW 12 19 29.93 1014 10 16 0.00 0.00
6:53 am 06:53 Sunny 57 13.9 43 6.1 60 60 SSW 10 17 29.93 1014 10 16 0.00 0.00
7:53 am 07:53 Sunny 63 17.2 44 6.7 50 50 SW 8 13 29.93 1014 10 16 0.00 0.00
8:53 am 08:53 Sunny 68 20 43 6.1 40 40 SSW 14 22 29.93 1013 10 16 0.00 0.00
9:53 am 09:53 Sunny 73 22.8 46 7.8 38 38 SW 12 19 29.91 1013 10 16 0.00 0.00
10:53 am 10:53 Sunny 77 25 43 6.1 30 30 WSW 13 20 29.89 1012 10 16 0.00 0.00
11:53 am 11:53 Sunny 80 26.7 43 6.1 27 27 WSW 15 24 29.89 1012 10 16 0.00 0.00
12:53 pm 12:53 Sunny 82 27.8 42 5.6 24 24 W 14 22 29.87 1012 10 16 0.00 0.00
1:53 pm 13:53 Sunny 83 28.3 43 6.1 24 24 SSW 10 17 29.85 1011 10 16 0.00 0.00
2:53 pm 14:53 Sunny 84 28.9 43 6.1 24 24 SW 9 15 29.82 1010 10 16 0.00 0.00
3:53 pm 15:53 Sunny 86 30 42 5.6 21 21 WSW 12 19 29.80 1009 10 16 0.00 0.00
4:53 pm 16:53 Sunny 86 30 41 5 20 20 WSW 10 17 29.79 1009 10 16 0.00 0.00
5:53 pm 17:53 Sunny 86 30 42 5.6 21 21 W 10 17 29.77 1008 10 16 0.00 0.00
6:53 pm 18:53 Sunny 84 28.9 44 6.7 25 25 SW 10 17 29.76 1008 10 16 0.00 0.00
7:53 pm 19:53 Sunny 81 27.2 44 6.7 27 27 SW 12 19 29.74 1007 10 16 0.00 0.00
8:53 pm 20:53 Sunny 75 23.9 43 6.1 32 32 SW 10 17 29.74 1007 10 16 0.00 0.00
9:53 pm 21:53 Clear 70 21.1 43 6.1 38 38 SW 10 17 29.76 1008 10 16 0.00 0.00
10:53 pm 22:53 Clear 68 20 43 6.1 40 40 SW 10 17 29.76 1008 10 16 0.00 0.00
11:53 pm 23:53 Clear 65 18.3 44 6.7 47 47 SW 10 17 29.76 1008 10 16 0.00 0.00

Powered by AerisWeather